Location: Izdebno
(52.6670°N, 16.2170°E)
Time: 10:31:15
(UTC+01:00)

Transit 2A - Pass Details

Date: 01 February 2023
Orbit: 591 x 964 km, 66.7° (Epoch: 21 March)

Event Time Altitude Azimuth Distance (km) Brightness Sun altitude
Rises 18:33:06 0° 228° (SW) 3,032 10.0 -17.1°
Reaches altitude 10° 18:35:19 10° 232° (SW) 2,171 9.2 -17.5°
Maximum altitude 18:40:15 65° 314° (NW) 835 6.3 -18.2°
Enters shadow 18:44:24 18° 34° (NE) 1,914 7.7 -18.8°
Drops below altitude 10° 18:45:48 10° 37° (NE) 2,434 - -19.0°
Sets 18:48:25 0° 40° (NE) 3,432 - -19.4°
